• Em Portugal
  • Lista de países
  • Para 7 dias
  • Temperatura da água
  • Mapas de satélite
  • Mapa do tempo
  • Widgets de tempo
  • user-avatar
    Iniciar Sessão

    Previsão horária em Brusbeno

    Hoje, 17 Agosto, Sexta-feira

    Tempo Temperatura Precipitação Vento Pressão Humidade
    00:00 +17°C° 0 mm 2 m/s 758 mmHg 32%
    01:00 +16°C° 0 mm 2 m/s 758 mmHg 33%
    02:00 +15°C° 0 mm 2 m/s 758 mmHg 34%
    03:00 +15°C° 0 mm 2 m/s 758 mmHg 34%
    04:00 +15°C° 0 mm 2 m/s 758 mmHg 33%
    05:00 +15°C° 0 mm 2 m/s 758 mmHg 34%
    06:00 +15°C° 0 mm 2 m/s 758 mmHg 34%
    07:00 +15°C° 0 mm 2 m/s 759 mmHg 35%
    08:00 +18°C° 0 mm 2 m/s 759 mmHg 30%
    09:00 +23°C° 0 mm 2 m/s 759 mmHg 26%
    10:00 +27°C° 0 mm 1 m/s 759 mmHg 20%
    11:00 +28°C° 0 mm 2 m/s 759 mmHg 19%
    12:00 +29°C° 0 mm 2 m/s 758 mmHg 18%
    13:00 +30°C° 0 mm 2 m/s 758 mmHg 17%
    14:00 +30°C° 0 mm 3 m/s 757 mmHg 19%
    15:00 +29°C° 0 mm 3 m/s 757 mmHg 21%
    16:00 +29°C° 0 mm 4 m/s 757 mmHg 23%
    17:00 +26°C° 0 mm 3 m/s 757 mmHg 28%
    18:00 +24°C° 0 mm 3 m/s 757 mmHg 33%
    19:00 +20°C° 0 mm 2 m/s 758 mmHg 39%
    20:00 +20°C° 0 mm 3 m/s 758 mmHg 40%
    21:00 +19°C° 0 mm 3 m/s 759 mmHg 42%
    22:00 +18°C° 0 mm 3 m/s 759 mmHg 44%
    23:00 +17°C° 0 mm 3 m/s 759 mmHg 47%

    Amanhã, 18 Agosto, Sábado

    Tempo Temperatura Precipitação Vento Pressão Humidade
    00:00 +16°C° 0 mm 3 m/s 760 mmHg 50%
    01:00 +14°C° 0 mm 3 m/s 760 mmHg 53%
    02:00 +14°C° 0 mm 3 m/s 760 mmHg 54%
    03:00 +13°C° 0 mm 3 m/s 760 mmHg 55%
    04:00 +13°C° 0 mm 3 m/s 760 mmHg 57%
    05:00 +12°C° 0 mm 3 m/s 760 mmHg 56%
    06:00 +12°C° 0 mm 3 m/s 760 mmHg 54%
    07:00 +13°C° 0 mm 2 m/s 761 mmHg 53%
    08:00 +16°C° 0 mm 3 m/s 761 mmHg 45%
    09:00 +20°C° 0 mm 3 m/s 761 mmHg 36%
    10:00 +24°C° 0 mm 3 m/s 761 mmHg 27%
    11:00 +25°C° 0 mm 3 m/s 760 mmHg 24%
    12:00 +27°C° 0 mm 4 m/s 759 mmHg 22%
    13:00 +28°C° 0 mm 4 m/s 758 mmHg 19%
    14:00 +28°C° 0 mm 4 m/s 758 mmHg 20%
    15:00 +28°C° 0 mm 4 m/s 758 mmHg 20%
    16:00 +27°C° 0 mm 4 m/s 757 mmHg 21%
    17:00 +25°C° 0 mm 4 m/s 758 mmHg 26%
    18:00 +21°C° 0 mm 3 m/s 758 mmHg 31%
    19:00 +19°C° 0 mm 2 m/s 759 mmHg 36%
    20:00 +18°C° 0 mm 3 m/s 759 mmHg 36%
    21:00 +17°C° 0 mm 3 m/s 760 mmHg 35%
    22:00 +17°C° 0 mm 3 m/s 760 mmHg 35%
    23:00 +16°C° 0 mm 3 m/s 760 mmHg 36%

    Depois de amanhã, 19 Agosto, Domingo

    Tempo Temperatura Precipitação Vento Pressão Humidade
    00:00 +14°C° 0 mm 3 m/s 760 mmHg 37%
    01:00 +14°C° 0 mm 3 m/s 760 mmHg 38%
    02:00 +14°C° 0 mm 4 m/s 760 mmHg 40%
    03:00 +13°C° 0 mm 4 m/s 760 mmHg 42%
    04:00 +13°C° 0 mm 5 m/s 760 mmHg 45%
    05:00 +13°C° 0 mm 4 m/s 760 mmHg 46%
    06:00 +12°C° 0 mm 4 m/s 761 mmHg 47%
    07:00 +12°C° 0 mm 4 m/s 761 mmHg 49%
    08:00 +14°C° 0 mm 5 m/s 761 mmHg 41%
    09:00 +16°C° 0 mm 5 m/s 761 mmHg 33%
    10:00 +19°C° 0 mm 6 m/s 761 mmHg 26%
    11:00 +19°C° 0 mm 6 m/s 761 mmHg 23%
    12:00 +20°C° 0 mm 6 m/s 760 mmHg 21%
    13:00 +21°C° 0 mm 7 m/s 759 mmHg 19%
    14:00 +21°C° 0 mm 7 m/s 759 mmHg 19%
    15:00 +20°C° 0 mm 7 m/s 759 mmHg 19%
    16:00 +20°C° 0 mm 7 m/s 758 mmHg 19%
    17:00 +17°C° 0 mm 7 m/s 759 mmHg 21%
    18:00 +16°C° 0 mm 7 m/s 760 mmHg 24%
    19:00 +14°C° 0 mm 7 m/s 760 mmHg 27%
    20:00 +12°C° 0 mm 7 m/s 761 mmHg 29%
    21:00 +12°C° 0 mm 7 m/s 761 mmHg 32%
    22:00 +11°C° 0 mm 7 m/s 762 mmHg 35%
    23:00 +10°C° 0 mm 7 m/s 762 mmHg 36%

    20 Agosto, Segunda-feira

    Tempo Temperatura Precipitação Vento Pressão Humidade
    00:00 +10°C° 0 mm 7 m/s 761 mmHg 37%
    01:00 +9°C° 0 mm 7 m/s 761 mmHg 38%
    02:00 +9°C° 0 mm 7 m/s 761 mmHg 39%
    03:00 +8°C° 0 mm 7 m/s 761 mmHg 39%
    04:00 +8°C° 0 mm 6 m/s 761 mmHg 40%
    05:00 +8°C° 0 mm 6 m/s 761 mmHg 41%
    06:00 +8°C° 0 mm 6 m/s 762 mmHg 42%
    07:00 +8°C° 0 mm 6 m/s 762 mmHg 42%
    08:00 +10°C° 0 mm 6 m/s 762 mmHg 37%
    09:00 +14°C° 0 mm 5 m/s 762 mmHg 31%
    10:00 +16°C° 0 mm 5 m/s 762 mmHg 26%
    11:00 +19°C° 0 mm 4 m/s 762 mmHg 22%
    12:00 +20°C° 0 mm 4 m/s 761 mmHg 17%
    13:00 +22°C° 0 mm 4 m/s 760 mmHg 13%
    14:00 +22°C° 0 mm 4 m/s 760 mmHg 13%
    15:00 +22°C° 0 mm 4 m/s 760 mmHg 12%
    16:00 +22°C° 0 mm 3 m/s 760 mmHg 12%
    17:00 +20°C° 0 mm 3 m/s 761 mmHg 17%
    18:00 +17°C° 0 mm 3 m/s 761 mmHg 22%
    19:00 +14°C° 0 mm 3 m/s 762 mmHg 27%
    20:00 +13°C° 0 mm 3 m/s 763 mmHg 29%
    21:00 +12°C° 0 mm 3 m/s 763 mmHg 31%
    22:00 +11°C° 0 mm 3 m/s 764 mmHg 33%
    23:00 +10°C° 0 mm 3 m/s 764 mmHg 34%

    21 Agosto, Terça-feira

    Tempo Temperatura Precipitação Vento Pressão Humidade
    00:00 +9°C° 0 mm 3 m/s 763 mmHg 36%
    01:00 +9°C° 0 mm 3 m/s 763 mmHg 37%
    02:00 +8°C° 0 mm 3 m/s 763 mmHg 39%
    03:00 +8°C° 0 mm 3 m/s 763 mmHg 40%
    04:00 +7°C° 0 mm 3 m/s 763 mmHg 42%
    05:00 +7°C° 0 mm 3 m/s 763 mmHg 42%
    06:00 +8°C° 0 mm 3 m/s 764 mmHg 41%
    07:00 +8°C° 0 mm 2 m/s 764 mmHg 41%
    08:00 +12°C° 0 mm 2 m/s 764 mmHg 35%
    09:00 +16°C° 0 mm 2 m/s 764 mmHg 29%
    10:00 +19°C° 0 mm 2 m/s 764 mmHg 23%
    11:00 +21°C° 0 mm 2 m/s 763 mmHg 20%
    12:00 +23°C° 0 mm 2 m/s 762 mmHg 17%
    13:00 +24°C° 0 mm 2 m/s 761 mmHg 14%
    14:00 +24°C° 0 mm 2 m/s 761 mmHg 15%
    15:00 +24°C° 0 mm 3 m/s 760 mmHg 16%
    16:00 +24°C° 0 mm 3 m/s 760 mmHg 17%
    17:00 +20°C° 0 mm 3 m/s 761 mmHg 24%
    18:00 +18°C° 0 mm 3 m/s 761 mmHg 32%
    19:00 +14°C° 0 mm 3 m/s 762 mmHg 39%
    20:00 +13°C° 0 mm 3 m/s 762 mmHg 38%
    21:00 +12°C° 0 mm 3 m/s 762 mmHg 36%
    22:00 +11°C° 0 mm 3 m/s 763 mmHg 35%
    23:00 +10°C° 0 mm 3 m/s 763 mmHg 34%

    22 Agosto, Quarta-feira

    Tempo Temperatura Precipitação Vento Pressão Humidade
    00:00 +10°C° 0 mm 3 m/s 763 mmHg 34%
    01:00 +9°C° 0 mm 3 m/s 762 mmHg 33%
    02:00 +9°C° 0 mm 3 m/s 762 mmHg 35%
    03:00 +8°C° 0 mm 3 m/s 762 mmHg 37%
    04:00 +8°C° 0 mm 3 m/s 762 mmHg 39%
    05:00 +8°C° 0 mm 3 m/s 763 mmHg 39%
    06:00 +8°C° 0 mm 2 m/s 763 mmHg 40%
    07:00 +9°C° 0 mm 2 m/s 764 mmHg 40%
    08:00 +13°C° 0 mm 2 m/s 763 mmHg 34%
    09:00 +17°C° 0 mm 2 m/s 763 mmHg 28%
    10:00 +22°C° 0 mm 1 m/s 763 mmHg 22%
    11:00 +23°C° 0 mm 1 m/s 762 mmHg 19%
    12:00 +25°C° 0 mm 1 m/s 762 mmHg 16%
    13:00 +26°C° 0 mm 1 m/s 761 mmHg 13%
    14:00 +25°C° 0 mm 2 m/s 761 mmHg 14%
    15:00 +25°C° 0 mm 3 m/s 760 mmHg 16%
    16:00 +24°C° 0 mm 3 m/s 760 mmHg 18%
    17:00 +21°C° 0 mm 3 m/s 761 mmHg 26%
    18:00 +18°C° 0 mm 3 m/s 761 mmHg 33%
    19:00 +16°C° 0 mm 3 m/s 762 mmHg 41%
    20:00 +14°C° 0 mm 3 m/s 762 mmHg 42%
    21:00 +13°C° 0 mm 3 m/s 762 mmHg 43%
    22:00 +12°C° 0 mm 3 m/s 763 mmHg 44%
    23:00 +11°C° 0 mm 3 m/s 762 mmHg 43%
    Mostrar mais